x

St. Joseph, Mi (sjom4) Weather Station

8:50pm - Mon 1st Sep 2014 All times are CDT. -5 hours from GMT.

  • Wind
    13mph, 16mph gusts
  • Air Temp 74°f
  • Sea Pressure 1010.5mb
  • St. Joseph, Mi
  • St. Joseph, Mi

More Historic Weather Station data

Upgrade to MSW Pro to gain access to the past 30 days of data for over 8000 Wavebouys and Weather Stations around the globe.

Join Pro

Comparision Forecast

View Surf forecast
   
Mon 09/01 8:50pm 13 16 mph 1010.5mb 74f
8:40pm 13 15 mph 1010.8mb 74f
8:35pm 13 16 mph 1010.5mb 74f
8:30pm 13 16 mph 1010.2mb 74f
8:20pm 13 16 mph 1009.8mb 74f
8:10pm 13 16 mph 1010.2mb 74f
8:00pm 14 16 mph 1010.2mb 74f
7:50pm 14 16 mph 1009.8mb 75f
7:40pm 13 16 mph 1009.1mb 75f
7:35pm 14 16 mph 1009.8mb 75f
7:30pm 14 16 mph 1009.1mb 75f
7:20pm 13 15 mph 1009.5mb 75f
7:10pm 11 15 mph 1009.8mb 75f
7:00pm 14 16 mph 1009.5mb 75f
6:50pm 11 15 mph 1009.5mb 75f
6:40pm 13 14 mph 1009.1mb 75f
6:34pm 10 14 mph 1009.5mb 75f
6:30pm 11 14 mph 1008.8mb 75f
6:20pm 10 14 mph 1008.5mb 75f
6:10pm 11 13 mph 1008.5mb 75f
6:00pm 10 13 mph 1008.8mb 75f
5:50pm 10 13 mph 1008.5mb 76f
5:40pm 10 13 mph 1008.5mb 76f
5:34pm 10 13 mph 1008.5mb 76f
5:30pm 10 13 mph 1008.5mb 76f
5:20pm 11 13 mph 1008.8mb 76f
5:10pm 11 13 mph 1008.8mb 76f
5:00pm 10 13 mph 1008.8mb 76f
4:50pm 9 13 mph 1008.8mb 76f
4:40pm 10 13 mph 1008.8mb 75f
4:33pm 11 15 mph 1008.1mb 75f
4:30pm 11 14 mph 1008.8mb 75f
4:20pm 11 14 mph 1008.8mb 75f
4:10pm 11 14 mph 1008.8mb 75f
4:00pm 11 14 mph 1008.8mb 75f
3:50pm 13 14 mph 1008.8mb 75f
3:40pm 13 15 mph 1008.8mb 75f
3:33pm 13 21 mph 1008.8mb 75f
3:30pm 14 16 mph 1008.8mb 75f
3:20pm 13 17 mph 1008.5mb 76f
3:10pm 14 20 mph 1008.1mb 76f
3:00pm 14 21 mph 1008.1mb 77f
2:50pm 14 16 mph 1008.1mb 76f
2:40pm 13 16 mph 1008.8mb 75f
2:32pm 11 16 mph 1009.1mb 75f
2:30pm 11 14 mph 1009.5mb 75f
2:20pm 11 14 mph 1009.5mb 75f
2:10pm 10 14 mph 1009.1mb 74f
2:00pm 10 14 mph 1008.5mb 74f
1:50pm 11 16 mph 1009.1mb 74f
1:40pm 14 16 mph 1009.5mb 74f
1:32pm 13 23 mph 1009.1mb 74f
1:30pm 14 20 mph 1009.1mb 74f
1:20pm 16 22 mph 1008.8mb 73f
1:10pm 17 22 mph 1009.5mb 73f
1:00pm 16 21 mph 1009.1mb 73f
12:50pm 18 21 mph 1008.8mb 73f
12:40pm 16 23 mph 1009.5mb 72f
12:32pm 21 23 mph 1009.1mb 72f
12:30pm 20 22 mph 1008.8mb 72f
12:20pm 16 22 mph 1008.8mb 73f
12:10pm 13 20 mph 1009.5mb 73f
12:00pm 16 20 mph 1009.1mb 73f
11:50am 17 21 mph 1009.1mb 73f
11:40am 15 20 mph 1009.8mb 74f
11:31am 15 22 mph 1009.8mb 74f
11:30am 15 22 mph 1009.8mb 74f
11:20am 15 22 mph 1009.1mb 75f
11:10am 11 20 mph 1009.1mb 76f
11:00am 13 18 mph 1009.5mb 76f
10:50am 10 17 mph 1009.1mb 76f
10:40am 7 15 mph 1008.8mb 76f
10:31am 8 17 mph 1009.1mb 75f
10:30am 8 15 mph 1008.5mb 75f
10:20am 5 11 mph 1009.1mb 75f
10:10am 6 11 mph 1008.8mb 75f
10:00am 7 14 mph 1008.5mb 75f
9:50am 8 17 mph 1009.1mb 74f
9:40am 7 13 mph 1009.1mb 74f
9:30am 7 13 mph 1008.8mb 74f
9:20am 7 17 mph 1009.1mb 74f
9:10am 7 11 mph 1009.1mb 75f
9:00am 7 13 mph 1008.5mb 74f
8:50am 3 11 mph 1009.1mb 74f
8:40am 2 9 mph 1009.1mb 74f
8:30am 2 8 mph 1009.1mb 73f
8:20am 2 10 mph 1010.2mb 73f
8:10am 3 10 mph 1009.5mb 73f
8:00am 1 15 mph 1010.5mb 72f
7:50am 9 16 mph 1010.2mb 72f
7:40am 11 22 mph 1010.2mb 73f
7:30am 13 18 mph 1009.8mb 74f
7:20am 6 11 mph 1009.5mb 73f
7:10am 7 13 mph 1010.5mb 73f
7:00am 3 8 mph 1010.2mb 73f
6:50am 3 13 mph 1010.5mb 72f
6:40am 2 7 mph 1010.5mb 72f
6:30am 2 7 mph 1010.5mb 71f
6:29am 2 9 mph 1010.2mb 71f
6:20am 2 9 mph 1010.5mb 71f
6:10am 2 8 mph 1010.2mb 71f
6:00am  -  6 mph 1010.8mb 71f
5:50am  -  6 mph 1010.5mb 71f
5:40am  -  6 mph 1011.5mb 71f
5:30am  -  7 mph 1010.8mb 71f
5:29am  -  7 mph 1011.9mb 71f
5:20am 1 5 mph 1011.9mb 71f
5:10am  -  7 mph 1011.2mb 71f
5:00am 1 7 mph 1011.5mb 71f
4:50am 1 7 mph 1011.5mb 71f
4:40am  -  6 mph 1011.2mb 72f
4:30am  -  6 mph 1012.2mb 72f
4:28am  -  8 mph 1011.2mb 72f
4:20am 1 8 mph 1011.5mb 72f
4:10am  -  7 mph 1012.5mb 71f
4:00am  -  6 mph 1011.9mb 72f
3:50am  -  6 mph 1011.9mb 72f
3:40am  -  6 mph 1012.2mb 72f
3:30am 1 5 mph 1011.5mb 72f
3:28am  -  11 mph 1012.2mb 72f
3:20am 2 9 mph 1012.2mb 73f
3:10am 3 8 mph 1012.2mb 73f
3:00am 3 11 mph 1011.9mb 73f
2:50am 6 11 mph 1012.9mb 73f
2:40am 5 9 mph 1011.5mb 73f
2:30am 3 11 mph 1012.2mb 73f
2:28am 5 11 mph 1012.2mb 73f
2:20am 3 9 mph 1012.2mb 73f
2:10am 3 9 mph 1011.9mb 73f
2:00am 3 10 mph 1012.9mb 73f
1:50am 2 7 mph 1012.2mb 73f
1:40am 2 7 mph 1012.5mb 72f
1:30am 5 10 mph 1013.2mb 72f
1:27am 3 11 mph 1013.2mb 72f
1:20am 2 10 mph 1012.5mb 72f
1:10am 3 9 mph 1013.5mb 72f
1:00am 2 10 mph 1013.2mb 72f
12:50am 2 11 mph 1012.5mb 72f
12:40am 5 9 mph 1013.2mb 72f
12:30am 2 8 mph 1012.9mb 73f
12:27am  -  10 mph 1013.2mb 73f
12:20am 3 8 mph 1012.9mb 73f
12:10am 2 9 mph 1013.5mb 73f
12:00am 2 8 mph 1013.2mb 73f
Sun 08/31 11:50pm 2 10 mph 1012.9mb 73f
11:40pm 5 10 mph 1013.5mb 73f
11:30pm 2 7 mph 1013.2mb 73f
11:26pm 2 7 mph 1012.5mb 73f
11:20pm  -  7 mph 1012.5mb 73f
11:10pm  -  6 mph 1013.2mb 73f
11:00pm  -  3 mph 1013.2mb 73f
10:50pm  -  2 mph 1012.5mb 73f
10:40pm  -  2 mph 1013.2mb 73f
10:30pm  -  5 mph 1012.9mb 73f
10:26pm  -  5 mph 1012.5mb 73f
10:20pm  -  3 mph 1012.2mb 73f
10:10pm  -  3 mph 1011.9mb 73f
10:00pm  -  3 mph 1012.9mb 72f
9:50pm  -  5 mph 1013.2mb 72f
9:40pm  -  2 mph 1012.5mb 72f
9:30pm  -  mph 1012.2mb 73f
9:20pm  -  2 mph 1012.5mb 73f
9:10pm  -  mph 1013.2mb 73f
9:00pm  -  1 mph 1013.5mb 74f
8:50pm  -  mph 1013.5mb 74f
8:40pm  -  1 mph 1013.5mb 75f
8:30pm  -  1 mph 1013.2mb 75f
8:25pm  -  1 mph 1013.9mb 76f
8:20pm  -  1 mph 1013.2mb 76f
8:10pm  -  mph 1013.2mb 76f
8:00pm  -  1 mph 1012.9mb 76f
7:50pm  -  mph 1013.5mb 76f
7:40pm  -  mph 1013.9mb 76f
7:30pm  -  mph 1013.9mb 76f
7:25pm  -  mph 1013.2mb 77f
7:20pm  -  mph 1013.5mb 77f
7:10pm  -  mph 1013.2mb 78f
7:00pm  -  mph 1013.9mb 78f
6:50pm  -  mph 1013.5mb 79f
6:40pm  -  mph 1013.5mb 79f
6:00pm  -  2 mph 1013.2mb 79f
5:50pm  -  mph 1014.2mb 79f
5:40pm  -  mph 1013.2mb 80f
5:30pm  -  1 mph 1013.9mb 79f
5:24pm  -  mph 1014.2mb 83f
5:20pm  -  mph 1013.9mb 83f
5:10pm  -  mph 1013.5mb 81f
5:00pm  -  mph 1013.9mb 84f
4:50pm  -  mph 1013.9mb 81f
4:40pm  -  mph 1013.9mb 82f
4:30pm  -  mph 1014.2mb 84f
4:24pm  -  mph 1014.2mb 85f
4:20pm  -  mph 1013.5mb 85f
4:10pm  -  mph 1014.2mb 83f
4:00pm  -  mph 1013.5mb 82f
3:50pm  -  mph 1014.2mb 80f
3:40pm  -  mph 1013.9mb 78f
3:30pm  -  mph 1014.2mb 81f
3:23pm  -  3 mph 1013.9mb 82f
3:20pm  -  mph 1014.6mb 82f
3:10pm  -  mph 1014.2mb 81f
3:00pm  -  mph 1013.9mb 80f
2:50pm  -  3 mph 1014.6mb 78f
2:40pm  -  mph 1014.9mb 77f
2:30pm  -  mph 1014.9mb 78f
2:23pm  -  8 mph 1014.6mb 78f
2:20pm  -  mph 1014.6mb 78f
2:10pm  -  5 mph 1014.6mb 80f
2:00pm 3 6 mph 1014.9mb 79f
1:50pm 5 7 mph 1015.2mb 79f
1:40pm 6 8 mph 1015.2mb 78f
1:30pm 6 8 mph 1015.2mb 78f
1:22pm 5 8 mph 1014.9mb 78f
1:20pm 5 8 mph 1014.9mb 78f
1:10pm 6 7 mph 1014.9mb 78f
1:00pm 3 6 mph 1014.9mb 79f
12:50pm 3 8 mph 1014.9mb 79f
12:40pm 3 6 mph 1014.9mb 79f
12:30pm 5 6 mph 1014.6mb 79f
12:22pm 2 8 mph 1015.2mb 79f
12:20pm 3 5 mph 1014.6mb 79f
12:10pm 2 5 mph 1014.9mb 78f
12:00pm 1 5 mph 1015.2mb 79f
11:50am 3 5 mph 1015.2mb 77f
11:40am 5 6 mph 1015.6mb 74f
11:30am 6 8 mph 1015.2mb 74f
11:22am 7 10 mph 1015.2mb 74f
11:20am 6 7 mph 1014.9mb 74f
11:10am 6 7 mph 1014.9mb 75f
11:00am 7 9 mph 1015.2mb 74f
10:50am 8 10 mph 1015.6mb 74f
10:40am 9 10 mph 1015.2mb 73f
10:30am 8 10 mph 1014.9mb 73f
10:21am 9 15 mph 1015.2mb 73f
10:20am 9 13 mph 1015.6mb 73f
10:10am 10 15 mph 1015.2mb 73f
10:00am 10 15 mph 1014.9mb 72f
9:50am 10 14 mph 1015.6mb 72f
9:40am 11 14 mph 1014.6mb 72f
9:30am 11 15 mph 1015.6mb 71f
9:21am 11 16 mph 1015.2mb 71f
9:20am 11 14 mph 1014.9mb 71f
9:10am 9 13 mph 1015.2mb 71f
9:00am 10 16 mph 1014.9mb 71f
8:50am 11 15 mph 1015.2mb 71f
8:40am 10 14 mph 1014.9mb 70f
8:30am 9 13 mph 1015.2mb 70f
8:20am 8 13 mph 1014.9mb 70f
8:10am 8 11 mph 1015.2mb 70f
8:00am 8 11 mph 1014.9mb 70f
7:50am 7 10 mph 1015.6mb 69f
7:40am 8 9 mph 1014.9mb 70f
7:30am 7 9 mph 1015.6mb 69f
7:20am 7 9 mph 1014.9mb 69f
7:10am 6 9 mph 1015.2mb 69f
7:00am 6 9 mph 1015.2mb 69f
6:50am 3 8 mph 1014.9mb 69f
6:40am 3 9 mph 1015.6mb 69f
6:30am 5 10 mph 1014.6mb 69f
6:20am 3 10 mph 1015.2mb 69f
6:10am 5 9 mph 1014.6mb 69f
6:00am 5 10 mph 1015.2mb 69f
5:50am 7 9 mph 1014.6mb 69f
5:40am 6 9 mph 1014.6mb 68f
5:30am 6 11 mph 1014.9mb 69f
5:20am 6 11 mph 1014.2mb 68f
5:19am 6 11 mph 1014.6mb 68f
5:10am 6 10 mph 1014.6mb 68f
5:00am 5 10 mph 1014.2mb 68f
4:50am 3 8 mph 1014.6mb 68f
4:40am 2 7 mph 1014.2mb 68f
4:30am 2 7 mph 1014.2mb 68f
4:20am  -  7 mph 1014.2mb 69f
4:19am 1 9 mph 1013.9mb 69f
4:10am  -  7 mph 1014.2mb 69f
4:00am 2 8 mph 1014.2mb 69f
3:50am 3 7 mph 1014.2mb 69f
3:40am 3 7 mph 1014.2mb 70f
3:30am 2 9 mph 1014.6mb 70f
3:20am 7 10 mph 1013.9mb 70f
3:18am 6 11 mph 1013.9mb 70f
3:10am 3 6 mph 1014.6mb 71f
3:00am 1 10 mph 1013.5mb 71f
2:50am 7 11 mph 1014.6mb 71f
2:40am 7 11 mph 1013.5mb 71f
2:30am 5 10 mph 1014.2mb 71f
2:20am 6 10 mph 1013.9mb 71f
2:18am 6 14 mph 1013.9mb 71f
2:10am 7 13 mph 1013.5mb 71f
2:00am 9 13 mph 1014.2mb 72f
1:50am 9 13 mph 1013.2mb 71f
1:40am 9 14 mph 1014.2mb 72f
1:30am 10 14 mph 1013.5mb 72f
1:20am 9 13 mph 1013.9mb 72f
1:18am 9 13 mph 1014.2mb 72f
1:10am 8 10 mph 1014.2mb 72f
1:00am 7 11 mph 1013.5mb 72f
12:50am 7 11 mph 1014.2mb 72f
12:40am 8 13 mph 1013.5mb 73f
12:30am 7 11 mph 1013.9mb 73f
12:20am 7 10 mph 1014.2mb 73f
12:17am 7 14 mph 1013.9mb 73f
12:10am 7 9 mph 1013.2mb 73f
12:00am 7 10 mph 1014.2mb 73f
Sat 08/30 11:50pm 6 11 mph 1014.2mb 73f
11:40pm 9 11 mph 1013.5mb 73f
11:30pm 8 14 mph 1014.2mb 73f
11:20pm 9 13 mph 1013.5mb 73f
11:17pm 8 13 mph 1013.5mb 73f
11:10pm 6 11 mph 1013.9mb 73f
11:00pm 6 10 mph 1014.2mb 73f
10:50pm 8 13 mph 1013.2mb 73f
10:40pm 7 11 mph 1013.9mb 72f
10:30pm 7 9 mph 1013.9mb 72f
10:20pm 6 13 mph 1013.2mb 72f
10:16pm 7 13 mph 1013.9mb 72f
10:10pm 9 11 mph 1013.9mb 72f
10:00pm 8 11 mph 1013.2mb 72f
9:50pm 8 10 mph 1012.9mb 72f
9:40pm 9 11 mph 1013.5mb 72f
9:30pm 8 11 mph 1012.9mb 72f
9:20pm 9 10 mph 1012.5mb 73f
9:16pm 8 14 mph 1013.2mb 73f
9:10pm 9 11 mph 1013.5mb 73f
9:00pm 9 10 mph 1012.9mb 73f
8:50pm 9 10 mph 1012.5mb 73f
8:40pm 9 14 mph 1012.9mb 73f
8:30pm 9 13 mph 1013.2mb 74f
8:20pm 8 11 mph 1012.5mb 74f
8:16pm 6 10 mph 1012.9mb 74f
8:10pm 5 8 mph 1012.5mb 74f
8:00pm 3 8 mph 1012.9mb 73f
7:50pm 6 9 mph 1012.9mb 73f
7:40pm 3 7 mph 1012.2mb 73f
7:30pm 6 7 mph 1012.2mb 73f
7:20pm 7 11 mph 1012.5mb 74f
7:15pm 9 14 mph 1012.2mb 75f
7:10pm 10 14 mph 1012.2mb 75f
7:00pm 9 13 mph 1012.2mb 75f
6:50pm 10 14 mph 1011.9mb 75f
6:40pm 10 14 mph 1011.2mb 74f
6:30pm 10 13 mph 1011.2mb 75f
6:20pm 9 14 mph 1011.5mb 75f
6:15pm 11 17 mph 1011.5mb 75f
6:10pm 13 15 mph 1011.9mb 75f
6:00pm 14 17 mph 1011.9mb 74f
5:50pm 15 17 mph 1011.5mb 74f
5:40pm 10 13 mph 1011.2mb 74f
5:30pm 10 14 mph 1011.2mb 75f
5:20pm 10 13 mph 1011.2mb 74f
5:14pm 10 14 mph 1011.5mb 74f
5:10pm 10 13 mph 1011.5mb 74f
5:00pm 10 14 mph 1011.5mb 74f
4:50pm 10 14 mph 1011.9mb 74f
4:40pm 11 13 mph 1011.9mb 74f
4:30pm 11 14 mph 1011.5mb 75f
4:20pm 11 16 mph 1010.8mb 75f
4:14pm 13 22 mph 1010.8mb 77f
4:10pm 11 20 mph 1010.8mb 77f
4:00pm 13 17 mph 1010.8mb 76f
3:50pm 13 16 mph 1010.8mb 76f
3:40pm 13 17 mph 1010.8mb 76f
3:30pm 14 18 mph 1011.2mb 76f
3:20pm 15 22 mph 1011.2mb 77f
3:13pm 15 24 mph 1011.9mb 77f
3:10pm 16 21 mph 1011.5mb 77f
3:00pm 16 21 mph 1011.5mb 77f
2:50pm 16 24 mph 1011.5mb 77f
2:40pm 16 24 mph 1011.9mb 77f
2:30pm 16 22 mph 1011.9mb 78f
2:20pm 15 20 mph 1011.9mb 76f
2:13pm 14 28 mph 1011.5mb 77f
2:10pm 17 22 mph 1012.2mb 77f
2:00pm 17 23 mph 1011.9mb 78f
1:50pm 17 28 mph 1011.9mb 78f
1:40pm 18 25 mph 1011.5mb 78f
1:30pm 18 22 mph 1011.5mb 77f
1:20pm 17 22 mph 1011.9mb 77f
1:13pm 16 22 mph 1012.5mb 77f
1:10pm 15 21 mph 1012.2mb 77f
1:00pm 11 16 mph 1012.5mb 75f
12:50pm 10 14 mph 1012.5mb 75f
12:40pm 13 17 mph 1012.5mb 75f
12:30pm 15 18 mph 1012.5mb 76f
12:20pm 16 18 mph 1012.2mb 76f
12:12pm 14 24 mph 1012.2mb 77f
12:10pm 13 20 mph 1011.9mb 77f
12:00pm 15 23 mph 1011.5mb 78f
11:50am 18 24 mph 1011.9mb 78f
11:40am 11 21 mph 1011.9mb 78f
11:30am 14 20 mph 1012.5mb 77f
11:20am 14 18 mph 1012.5mb 78f
11:12am 9 20 mph 1011.9mb 77f
11:10am 11 20 mph 1012.5mb 77f
11:00am 11 20 mph 1012.9mb 77f
10:50am 13 18 mph 1012.5mb 76f
10:40am 14 17 mph 1012.2mb 76f
10:30am 14 18 mph 1012.2mb 76f
10:20am 13 16 mph 1012.5mb 76f
10:11am 9 16 mph 1012.2mb 77f
10:10am 9 16 mph 1012.9mb 77f
10:00am 9 16 mph 1012.5mb 76f
9:50am 9 14 mph 1012.2mb 76f
9:40am 7 16 mph 1012.2mb 76f
9:30am 7 15 mph 1012.9mb 75f
9:20am 9 16 mph 1012.9mb 75f
9:11am 8 20 mph 1013.2mb 75f
9:10am 8 20 mph 1012.2mb 75f
9:00am 11 17 mph 1012.9mb 75f
8:50am 6 11 mph 1013.2mb 74f
8:40am 5 14 mph 1012.2mb 74f
8:30am 6 11 mph 1012.9mb 74f
8:20am 6 11 mph 1013.2mb 74f
8:11am 6 18 mph 1012.9mb 74f
8:10am 6 10 mph 1012.2mb 74f
8:00am 6 10 mph 1012.9mb 74f
7:50am 6 11 mph 1012.9mb 73f
7:40am 6 11 mph 1012.2mb 73f
7:30am 5 15 mph 1012.9mb 73f
7:20am 8 18 mph 1012.5mb 73f
7:10am 10 21 mph 1012.2mb 73f
7:00am 5 15 mph 1012.9mb 73f
6:50am 6 14 mph 1012.2mb 73f
6:40am 6 11 mph 1012.2mb 74f
6:30am 6 11 mph 1012.9mb 73f
6:20am 5 14 mph 1012.2mb 73f
6:10am 5 16 mph 1012.2mb 73f
6:00am 6 11 mph 1012.9mb 74f
5:50am 3 13 mph 1011.9mb 74f
5:40am 6 15 mph 1012.2mb 74f
5:30am 8 15 mph 1012.2mb 75f
5:20am 6 16 mph 1011.5mb 75f
5:10am 9 17 mph 1012.2mb 75f
5:09am 8 17 mph 1012.2mb 75f
5:00am 7 17 mph 1012.2mb 75f
4:50am 8 16 mph 1011.5mb 75f
4:40am 8 17 mph 1012.5mb 75f
4:30am 7 15 mph 1011.9mb 75f
4:20am 3 11 mph 1011.9mb 74f
4:10am 3 9 mph 1012.2mb 74f
4:09am 2 15 mph 1011.5mb 75f
4:00am 2 14 mph 1011.5mb 74f
3:50am 3 10 mph 1012.2mb 74f
3:40am 6 14 mph 1012.2mb 75f
3:30am 6 15 mph 1011.9mb 75f
3:20am 5 13 mph 1012.5mb 75f
3:10am 6 14 mph 1011.9mb 75f
3:09am 5 14 mph 1012.5mb 75f
3:00am 5 14 mph 1012.2mb 74f
2:50am 5 11 mph 1012.5mb 74f
2:40am 3 10 mph 1012.2mb 73f
2:30am 1 9 mph 1012.9mb 73f
2:20am  -  6 mph 1012.2mb 72f
2:10am 2 8 mph 1012.9mb 72f
2:08am 2 9 mph 1012.2mb 72f
2:00am 2 8 mph 1012.2mb 72f
1:50am 1 7 mph 1013.2mb 72f
1:40am 1 9 mph 1012.9mb 72f
1:30am  -  9 mph 1012.9mb 72f
1:20am 2 7 mph 1013.5mb 71f
1:10am 2 8 mph 1012.9mb 71f
1:08am 2 9 mph 1013.2mb 71f
1:00am 2 6 mph 1013.9mb 71f
12:50am 3 9 mph 1013.2mb 71f
12:40am  -  8 mph 1013.9mb 71f
12:30am 1 9 mph 1013.9mb 71f
12:20am 2 7 mph 1013.5mb 71f
12:10am 2 7 mph 1014.2mb 71f
12:07am 3 11 mph 1013.9mb 71f
12:00am 3 11 mph 1013.2mb 71f
Fri 08/29 11:50pm 2 8 mph 1013.9mb 71f
11:40pm 3 7 mph 1013.9mb 71f
11:30pm 2 10 mph 1013.2mb 71f
11:20pm 3 10 mph 1014.2mb 72f
11:10pm 3 8 mph 1014.2mb 72f
11:07pm 1 14 mph 1014.2mb 72f
11:00pm 2 8 mph 1013.2mb 72f
10:50pm 5 10 mph 1014.2mb 72f
10:40pm 3 14 mph 1014.6mb 73f
10:30pm 2 9 mph 1014.2mb 74f
10:20pm 1 6 mph 1014.2mb 74f
10:10pm  -  7 mph 1014.9mb 75f
10:07pm  -  11 mph 1014.9mb 75f
10:00pm 5 8 mph 1015.2mb 75f
9:50pm 6 11 mph 1014.6mb 76f
9:40pm 2 7 mph 1013.9mb 76f
9:30pm  -  6 mph 1014.6mb 76f
9:20pm 2 7 mph 1014.9mb 76f
9:10pm 2 7 mph 1014.2mb 76f
9:06pm 1 8 mph 1013.9mb 76f
9:00pm 2 5 mph 1013.5mb 76f
8:50pm 1 6 mph 1013.9mb 76f
8:40pm 2 7 mph 1014.2mb 75f
8:30pm  -  7 mph 1014.2mb 75f
8:20pm 2 7 mph 1013.9mb 75f
8:10pm 2 8 mph 1013.5mb 75f
8:06pm 1 6 mph 1013.9mb 75f
8:00pm  -  3 mph 1014.2mb 75f
7:50pm  -  5 mph 1014.6mb 75f
7:40pm  -  6 mph 1014.6mb 75f
7:30pm  -  3 mph 1014.2mb 76f
7:20pm  -  3 mph 1013.9mb 76f
7:10pm 1 6 mph 1013.9mb 76f
7:05pm 2 8 mph 1013.5mb 77f
7:00pm 2 6 mph 1013.9mb 77f
6:50pm  -  8 mph 1013.9mb 78f
6:40pm 2 7 mph 1013.9mb 78f
6:30pm 3 8 mph 1013.9mb 78f
6:20pm 1 5 mph 1013.5mb 78f
6:10pm 2 8 mph 1013.5mb 78f
6:05pm 1 11 mph 1014.2mb 78f
6:00pm 1 8 mph 1013.5mb 78f
5:50pm 1 8 mph 1013.5mb 78f
5:40pm 2 7 mph 1014.2mb 78f
5:30pm 2 9 mph 1014.6mb 78f
5:20pm 1 11 mph 1014.6mb 79f
5:10pm 2 8 mph 1014.2mb 79f
5:05pm 3 13 mph 1014.2mb 79f
5:00pm 1 8 mph 1013.9mb 80f
4:50pm 2 9 mph 1014.6mb 80f
4:40pm 3 8 mph 1015.2mb 82f
4:30pm 3 13 mph 1014.6mb 83f
4:20pm 5 13 mph 1014.2mb 83f
4:10pm 2 7 mph 1015.2mb 83f
4:04pm 2 9 mph 1015.2mb 83f
4:00pm 3 8 mph 1015.2mb 83f
3:50pm 2 9 mph 1014.9mb 82f
3:40pm 2 7 mph 1014.6mb 83f
3:30pm 3 9 mph 1014.9mb 81f
3:20pm 3 9 mph 1015.2mb 82f
3:10pm 2 8 mph 1015.2mb 81f
3:04pm 2 8 mph 1015.2mb 80f
3:00pm 1 6 mph 1014.9mb 80f
2:50pm  -  6 mph 1014.9mb 78f
2:40pm 3 8 mph 1015.2mb 77f
2:30pm 2 7 mph 1015.2mb 77f
2:20pm 1 7 mph 1015.6mb 77f
2:10pm 2 8 mph 1015.9mb 77f
2:03pm 1 11 mph 1015.9mb 78f
2:00pm 2 6 mph 1015.9mb 78f
1:50pm 1 5 mph 1016.3mb 78f
1:40pm  -  6 mph 1016.3mb 78f
1:30pm  -  7 mph 1016.6mb 78f
1:20pm 2 11 mph 1016.6mb 78f
1:10pm 3 11 mph 1016.9mb 78f
1:03pm 5 11 mph 1016.9mb 78f
1:00pm 5 11 mph 1016.9mb 78f
12:50pm 1 10 mph 1016.6mb 79f
12:40pm 2 8 mph 1016.6mb 80f
12:30pm 3 9 mph 1016.9mb 81f
12:20pm 1 6 mph 1016.9mb 80f
12:10pm 3 9 mph 1016.6mb 78f
12:03pm 3 11 mph 1016.9mb 78f
12:00pm 1 7 mph 1016.3mb 78f
11:50am 2 11 mph 1016.3mb 79f
11:40am 5 8 mph 1016.9mb 78f
11:30am 2 11 mph 1016.9mb 77f
11:20am 3 8 mph 1016.6mb 74f
11:10am 5 9 mph 1017.6mb 73f
11:02am 2 9 mph 1017.3mb 72f
11:00am 1 8 mph 1016.9mb 72f
10:50am 3 8 mph 1017.3mb 72f
10:40am 3 9 mph 1017.3mb 72f
10:30am 3 8 mph 1016.9mb 71f
10:20am 3 9 mph 1017.6mb 71f
10:10am 3 8 mph 1016.9mb 71f
10:02am 2 14 mph 1016.9mb 70f
10:00am 3 14 mph 1017.3mb 70f
9:50am 3 10 mph 1016.9mb 70f
9:40am 3 13 mph 1017.3mb 70f
9:30am 5 10 mph 1016.6mb 69f
9:20am 2 9 mph 1017.6mb 69f
9:10am 3 8 mph 1016.6mb 69f
9:01am 2 10 mph 1016.9mb 69f
9:00am 2 10 mph 1017.6mb 69f
8:50am 1 8 mph 1017.3mb 68f
8:40am 2 9 mph 1017.9mb 68f
8:30am 2 9 mph 1017.3mb 68f
8:20am 2 8 mph 1018.3mb 67f
8:10am 2 9 mph 1017.3mb 67f
8:01am 2 9 mph 1017.6mb 67f
8:00am 2 7 mph 1017.9mb 67f
7:50am 3 8 mph 1017.3mb 67f
7:40am 2 9 mph 1017.9mb 67f
7:30am  -  5 mph 1017.3mb 67f
7:20am  -  7 mph 1017.6mb 67f
7:10am  -  8 mph 1017.3mb 67f
7:01am 2 9 mph 1017.3mb 67f
7:00am 2 8 mph 1017.6mb 67f
6:50am 3 9 mph 1017.6mb 68f
6:40am 2 7 mph 1017.6mb 68f
6:30am 3 7 mph 1017.3mb 67f
6:20am 2 8 mph 1017.3mb 67f
6:10am 2 8 mph 1017.3mb 67f
6:00am 2 7 mph 1016.9mb 68f
5:50am 3 9 mph 1017.3mb 68f
5:40am 1 6 mph 1016.9mb 68f
5:30am 2 7 mph 1016.9mb 68f
5:20am 1 6 mph 1016.9mb 68f
5:10am 2 7 mph 1016.9mb 68f
5:00am 1 8 mph 1017.3mb 68f
4:50am  -  9 mph 1016.9mb 68f
4:40am 2 7 mph 1017.3mb 68f
4:30am 1 7 mph 1016.6mb 68f
4:20am  -  7 mph 1017.3mb 68f
4:10am 1 6 mph 1016.6mb 68f
4:00am 2 7 mph 1016.9mb 68f
3:59am 1 8 mph 1016.6mb 68f
3:50am 3 8 mph 1016.3mb 68f
3:40am 2 7 mph 1016.9mb 68f
3:30am 2 6 mph 1016.3mb 68f
3:20am 1 5 mph 1016.9mb 68f
3:10am  -  5 mph 1016.3mb 68f
3:00am 2 7 mph 1016.9mb 68f
2:59am  -  7 mph 1016.6mb 68f
2:50am 1 6 mph 1016.3mb 67f